,,Stat5,,Stat1,,Stat2,,Stat3,,Stat4,,Wind1,,Wind1,
time,status,PA1M_AVG,status,PR1M_SUM,status,RH1M_AVG,status,SR1M_AVG,status,TA1M_AVG,status,W1dAve1m,status,W1sAve1m,
2001-10-30, 00:00:00,VALID,919.602,VALID,0,VALID,97.7406,VALID,-0.135847,VALID,18.9269,VALID,13,VALID,0.102179,
2001-10-30, 00:01:00,VALID,919.602,VALID,0,VALID,97.7762,VALID,-0.118866,VALID,18.9269,VALID,23,VALID,0.223116,
2001-10-30, 00:02:00,VALID,919.583,VALID,0,VALID,97.864,VALID,-0.118866,VALID,18.9366,VALID,44,VALID,0.483141,
2001-10-30, 00:03:00,VALID,919.587,VALID,0,VALID,97.836,VALID,-0.0679233,VALID,18.9426,VALID,70,VALID,0.582899,
2001-10-30, 00:04:00,VALID,919.587,VALID,0,VALID,97.8029,VALID,0,VALID,18.9091,VALID,86,VALID,0.616982,
2001-10-30, 00:05:00,VALID,919.593,VALID,0,VALID,97.8233,VALID,-0.0169808,VALID,18.8895,VALID,119,VALID,0.636613,
2001-10-30, 00:06:00,VALID,919.583,VALID,0,VALID,97.9441,VALID,0,VALID,18.8932,VALID,145,VALID,0.663867,
2001-10-30, 00:07:00,VALID,919.582,VALID,0,VALID,97.8818,VALID,0,VALID,18.8669,VALID,139,VALID,0.745888,
2001-10-30, 00:08:00,VALID,919.575,VALID,0,VALID,97.9364,VALID,0,VALID,18.8674,VALID,136,VALID,0.577734,
2001-10-30, 00:09:00,VALID,919.551,VALID,0,VALID,97.9771,VALID,-0.0339617,VALID,18.8671,VALID,149,VALID,0.604102,
2001-10-30, 00:10:00,VALID,919.542,VALID,0,VALID,98.0865,VALID,-0.0339617,VALID,18.8874,VALID,141,VALID,0.459936,
2001-10-30, 00:11:00,VALID,919.528,VALID,0,VALID,98.1437,VALID,-0.0339617,VALID,18.8865,VALID,157,VALID,0.353207,
2001-10-30, 00:12:00,VALID,919.524,VALID,0,VALID,98.2035,VALID,0,VALID,18.9101,VALID,160,VALID,0.183594,
2001-10-30, 00:13:00,VALID,919.513,VALID,0,VALID,98.2632,VALID,0,VALID,18.9063,VALID,160,VALID,0,
2001-10-30, 00:14:00,VALID,919.502,VALID,0,VALID,98.3128,VALID,0.0169808,VALID,18.9056,VALID,160,VALID,0,
2001-10-30, 00:15:00,VALID,919.495,VALID,0,VALID,98.3421,VALID,0,VALID,18.9126,VALID,160,VALID,0,
2001-10-30, 00:16:00,VALID,919.488,VALID,0,VALID,98.3929,VALID,-0.0169808,VALID,18.9225,VALID,160,VALID,0,
2001-10-30, 00:17:00,VALID,919.489,VALID,0,VALID,98.4069,VALID,0,VALID,18.9163,VALID,160,VALID,0,
2001-10-30, 00:18:00,VALID,919.485,VALID,0,VALID,98.4311,VALID,0,VALID,18.9093,VALID,163,VALID,0.123998,
2001-10-30, 00:19:00,VALID,919.48,VALID,0,VALID,98.4464,VALID,-0.0169808,VALID,18.9004,VALID,167,VALID,0.0651727,
2001-10-30, 00:20:00,VALID,919.458,VALID,0,VALID,98.4794,VALID,0,VALID,18.8994,VALID,167,VALID,0.0220703,
2001-10-30, 00:21:00,VALID,919.45,VALID,0,VALID,98.5023,VALID,0,VALID,18.8999,VALID,167,VALID,0.003125,
2001-10-30, 00:22:00,VALID,919.437,VALID,0,VALID,98.5201,VALID,0,VALID,18.8932,VALID,166,VALID,0.0608974,
2001-10-30, 00:23:00,VALID,919.437,VALID,0,VALID,98.5328,VALID,-0.0169808,VALID,18.8934,VALID,166,VALID,0.0281661,
2001-10-30, 00:24:00,VALID,919.415,VALID,0,VALID,98.5621,VALID,-0.0169808,VALID,18.8997,VALID,166,VALID,0.118164,
2001-10-30, 00:25:00,VALID,919.398,VALID,0,VALID,98.5163,VALID,-0.0169808,VALID,18.8805,VALID,166,VALID,0.0787109,
2001-10-30, 00:26:00,VALID,919.384,VALID,0,VALID,98.5481,VALID,-0.0169808,VALID,18.8741,VALID,166,VALID,0.0270433,
2001-10-30, 00:27:00,VALID,919.358,VALID,0,VALID,98.5748,VALID,-0.0169808,VALID,18.8877,VALID,166,VALID,0.0421464,
2001-10-30, 00:28:00,VALID,919.353,VALID,0.2,VALID,98.6078,VALID,0,VALID,18.8798,VALID,164,VALID,0.194141,
2001-10-30, 00:29:00,VALID,919.334,VALID,0,VALID,98.6422,VALID,0,VALID,18.893,VALID,164,VALID,0.0146484,
2001-10-30, 00:30:00,VALID,919.328,VALID,0,VALID,98.6587,VALID,0.0339617,VALID,18.9126,VALID,220,VALID,0.0921474,
2001-10-30, 00:31:00,VALID,919.31,VALID,0,VALID,98.6485,VALID,0,VALID,18.886,VALID,296,VALID,0.0847039,
2001-10-30, 00:32:01,VALID,919.292,VALID,0,VALID,98.6485,VALID,0,VALID,18.8733,VALID,303,VALID,0,
2001-10-30, 00:33:00,VALID,919.289,VALID,0,VALID,98.6765,VALID,0,VALID,18.8863,VALID,303,VALID,0,
2001-10-30, 00:34:00,VALID,919.258,VALID,0,VALID,98.6918,VALID,0.0169808,VALID,18.8962,VALID,304,VALID,0,
2001-10-30, 00:35:00,VALID,919.245,VALID,0,VALID,98.7045,VALID,0,VALID,18.9091,VALID,332,VALID,0.296053,
2001-10-30, 00:36:00,VALID,919.23,VALID,0,VALID,98.6485,VALID,0,VALID,18.8738,VALID,15,VALID,0.752148,
2001-10-30, 00:37:00,VALID,919.207,VALID,0.2,VALID,98.6282,VALID,0,VALID,18.8574,VALID,18,VALID,0.529883,
2001-10-30, 00:38:00,VALID,919.191,VALID,0,VALID,98.6307,VALID,0,VALID,18.8343,VALID,18,VALID,0.463341,
2001-10-30, 00:39:00,VALID,919.174,VALID,0,VALID,98.6816,VALID,0,VALID,18.8507,VALID,27,VALID,0.759252,
2001-10-30, 00:40:01,VALID,919.15,VALID,0,VALID,98.6625,VALID,0,VALID,18.8678,VALID,25,VALID,0.805859,
2001-10-30, 00:41:00,VALID,919.138,VALID,0,VALID,98.6524,VALID,-0.0339617,VALID,18.8455,VALID,13,VALID,0.662891,
2001-10-30, 00:42:00,VALID,919.124,VALID,0,VALID,98.6333,VALID,-0.0169808,VALID,18.8316,VALID,24,VALID,0.8752,
2001-10-30, 00:43:00,VALID,919.11,VALID,0,VALID,98.5977,VALID,0,VALID,18.8162,VALID,26,VALID,0.909951,
2001-10-30, 00:44:01,VALID,919.097,VALID,0,VALID,98.6435,VALID,0,VALID,18.8025,VALID,21,VALID,0.738477,
2001-10-30, 00:45:00,VALID,919.067,VALID,0,VALID,98.6333,VALID,-0.0509425,VALID,18.7968,VALID,38,VALID,0.548047,
2001-10-30, 00:46:00,VALID,919.045,VALID,0.2,VALID,98.6269,VALID,-0.0169808,VALID,18.7965,VALID,49,VALID,0.627404,
2001-10-30, 00:47:00,VALID,919.015,VALID,0,VALID,98.5926,VALID,-0.0169808,VALID,18.7772,VALID,69,VALID,0.745271,
2001-10-30, 00:48:00,VALID,918.988,VALID,0,VALID,98.571,VALID,0.0169808,VALID,18.7608,VALID,78,VALID,0.892578,
2001-10-30, 00:49:00,VALID,918.954,VALID,0.2,VALID,98.5735,VALID,0,VALID,18.7511,VALID,72,VALID,0.805469,
2001-10-30, 00:50:00,VALID,918.906,VALID,0,VALID,98.5977,VALID,-0.0339617,VALID,18.7451,VALID,50,VALID,0.949319,
2001-10-30, 00:51:00,VALID,918.859,VALID,0,VALID,98.632,VALID,0,VALID,18.7511,VALID,41,VALID,1.10794,
2001-10-30, 00:52:01,VALID,918.822,VALID,0.2,VALID,98.6663,VALID,0,VALID,18.7677,VALID,38,VALID,0.964258,
2001-10-30, 00:53:00,VALID,918.802,VALID,0,VALID,98.6206,VALID,0,VALID,18.7481,VALID,48,VALID,0.949414,
2001-10-30, 00:54:01,VALID,918.758,VALID,0,VALID,98.6574,VALID,0.0169808,VALID,18.7516,VALID,53,VALID,1.22696,
2001-10-30, 00:55:00,VALID,918.721,VALID,0,VALID,98.6663,VALID,0,VALID,18.7548,VALID,38,VALID,1.03248,
2001-10-30, 00:56:01,VALID,918.699,VALID,0,VALID,98.618,VALID,0.0169808,VALID,18.7312,VALID,55,VALID,0.999805,
2001-10-30, 00:57:00,VALID,918.677,VALID,0,VALID,98.6015,VALID,0,VALID,18.7183,VALID,59,VALID,0.74668,
2001-10-30, 00:58:01,VALID,918.653,VALID,0,VALID,98.5862,VALID,0.0169808,VALID,18.7123,VALID,47,VALID,0.715946,
2001-10-30, 00:59:00,VALID,918.626,VALID,0,VALID,98.6066,VALID,0,VALID,18.7255,VALID,45,VALID,0.896382,
2001-10-30, 01:00:00,VALID,918.604,VALID,0,VALID,98.6333,VALID,0,VALID,18.7384,VALID,36,VALID,0.920117,
2001-10-30, 01:01:00,VALID,918.574,VALID,0,VALID,98.6231,VALID,0.0169808,VALID,18.7382,VALID,53,VALID,1.0543,
2001-10-30, 01:02:01,VALID,918.548,VALID,0,VALID,98.5252,VALID,0,VALID,18.7384,VALID,80,VALID,0.882612,
2001-10-30, 01:03:00,VALID,918.523,VALID,0,VALID,98.4858,VALID,0.0169808,VALID,18.7218,VALID,122,VALID,0.644942,
2001-10-30, 01:04:01,VALID,918.524,VALID,0.2,VALID,98.487,VALID,0,VALID,18.7183,VALID,147,VALID,0.609766,
2001-10-30, 01:05:00,VALID,918.521,VALID,0,VALID,98.4527,VALID,0.0169808,VALID,18.726,VALID,123,VALID,0.444727,
2001-10-30, 01:06:01,VALID,918.498,VALID,0,VALID,98.4832,VALID,0.0169808,VALID,18.7193,VALID,117,VALID,0.25621,
2001-10-30, 01:07:00,VALID,918.479,VALID,0,VALID,98.4896,VALID,0.0169808,VALID,18.7285,VALID,75,VALID,0.487459,
2001-10-30, 01:08:01,VALID,918.441,VALID,0.2,VALID,98.4883,VALID,0,VALID,18.725,VALID,70,VALID,0.713867,
2001-10-30, 01:09:00,VALID,918.402,VALID,0,VALID,98.4769,VALID,0,VALID,18.7352,VALID,69,VALID,0.990625,
2001-10-30, 01:10:01,VALID,918.345,VALID,0,VALID,98.4743,VALID,0,VALID,18.7384,VALID,60,VALID,1.17328,
2001-10-30, 01:11:00,VALID,918.303,VALID,0,VALID,98.4769,VALID,0,VALID,18.7255,VALID,54,VALID,1.85321,
2001-10-30, 01:12:00,VALID,918.221,VALID,0.2,VALID,98.2925,VALID,0.0169808,VALID,18.7195,VALID,58,VALID,2.00566,
2001-10-30, 01:13:00,VALID,918.16,VALID,0,VALID,98.2264,VALID,-0.0169808,VALID,18.723,VALID,55,VALID,1.51973,
2001-10-30, 01:14:00,VALID,918.122,VALID,0,VALID,98.1844,VALID,0,VALID,18.722,VALID,59,VALID,1.08574,
2001-10-30, 01:15:00,VALID,918.083,VALID,0,VALID,98.1386,VALID,0,VALID,18.7356,VALID,62,VALID,1.12192,
2001-10-30, 01:16:01,VALID,918.047,VALID,0,VALID,98.131,VALID,0,VALID,18.7223,VALID,72,VALID,1.15918,
2001-10-30, 01:17:00,VALID,918.026,VALID,0,VALID,97.9873,VALID,0,VALID,18.6964,VALID,92,VALID,1.08535,
2001-10-30, 01:18:01,VALID,918.026,VALID,0,VALID,97.9593,VALID,0,VALID,18.6803,VALID,93,VALID,1.11599,
2001-10-30, 01:19:00,VALID,918.02,VALID,0,VALID,97.9593,VALID,0,VALID,18.6639,VALID,97,VALID,0.747327,
2001-10-30, 01:20:01,VALID,918.023,VALID,0,VALID,97.9504,VALID,0.0169808,VALID,18.6609,VALID,76,VALID,0.560352,
2001-10-30, 01:21:00,VALID,918.03,VALID,0,VALID,98.0165,VALID,0.0169808,VALID,18.6572,VALID,46,VALID,0.761719,
2001-10-30, 01:22:01,VALID,918.027,VALID,0,VALID,97.9657,VALID,0,VALID,18.6574,VALID,83,VALID,0.773638,
2001-10-30, 01:23:00,VALID,918.024,VALID,0,VALID,97.8945,VALID,0,VALID,18.642,VALID,56,VALID,0.91653,
2001-10-30, 01:24:00,VALID,918.02,VALID,0,VALID,97.9097,VALID,0,VALID,18.6418,VALID,52,VALID,0.964844,
2001-10-30, 01:25:00,VALID,918.021,VALID,0,VALID,97.9034,VALID,0,VALID,18.6318,VALID,56,VALID,0.824219,
2001-10-30, 01:26:01,VALID,918.005,VALID,0,VALID,97.8958,VALID,-0.0169808,VALID,18.6351,VALID,84,VALID,0.551082,
2001-10-30, 01:27:00,VALID,917.987,VALID,0,VALID,97.8652,VALID,0,VALID,18.6351,VALID,63,VALID,0.356086,
2001-10-30, 01:28:01,VALID,917.962,VALID,0,VALID,97.8996,VALID,-0.0169808,VALID,18.6221,VALID,46,VALID,0.0773437,
2001-10-30, 01:29:00,VALID,917.938,VALID,0,VALID,97.9199,VALID,0,VALID,18.6221,VALID,128,VALID,0.643555,
2001-10-30, 01:30:01,VALID,917.913,VALID,0,VALID,97.9797,VALID,0,VALID,18.6221,VALID,130,VALID,0.691106,
2001-10-30, 01:31:00,VALID,917.875,VALID,0,VALID,98.0687,VALID,0.0169808,VALID,18.6383,VALID,117,VALID,0.472245,
2001-10-30, 01:32:01,VALID,917.852,VALID,0,VALID,98.1056,VALID,0,VALID,18.6415,VALID,127,VALID,0.333984,
2001-10-30, 01:33:00,VALID,917.828,VALID,0,VALID,98.1539,VALID,0,VALID,18.6219,VALID,131,VALID,0.607031,
2001-10-30, 01:34:01,VALID,917.8,VALID,0,VALID,98.1806,VALID,0.0169808,VALID,18.6256,VALID,147,VALID,0.557091,
2001-10-30, 01:35:00,VALID,917.782,VALID,0,VALID,98.2429,VALID,-0.0169808,VALID,18.6355,VALID,128,VALID,0.498766,
2001-10-30, 01:36:00,VALID,917.758,VALID,0,VALID,98.2989,VALID,0,VALID,18.6388,VALID,49,VALID,0.286914,
2001-10-30, 01:37:00,VALID,917.742,VALID,0,VALID,98.3319,VALID,-0.0169808,VALID,18.6487,VALID,133,VALID,0.453711,
2001-10-30, 01:38:01,VALID,917.723,VALID,0,VALID,98.3599,VALID,0,VALID,18.639,VALID,129,VALID,0.282051,
2001-10-30, 01:39:00,VALID,917.718,VALID,0,VALID,98.3879,VALID,0,VALID,18.6385,VALID,127,VALID,0.353824,
2001-10-30, 01:40:01,VALID,917.696,VALID,0,VALID,98.4209,VALID,0,VALID,18.6385,VALID,127,VALID,0.0722656,
2001-10-30, 01:41:00,VALID,917.684,VALID,0,VALID,98.4438,VALID,0,VALID,18.6221,VALID,127,VALID,0.0902344,
2001-10-30, 01:42:01,VALID,917.672,VALID,0,VALID,98.4654,VALID,0.0169808,VALID,18.6254,VALID,128,VALID,0.263822,
2001-10-30, 01:43:00,VALID,917.663,VALID,0,VALID,98.4743,VALID,0,VALID,18.6325,VALID,128,VALID,0.138775,
2001-10-30, 01:44:01,VALID,917.644,VALID,0,VALID,98.5137,VALID,0,VALID,18.639,VALID,128,VALID,0.199219,
2001-10-30, 01:45:00,VALID,917.622,VALID,0,VALID,98.5265,VALID,0,VALID,18.6323,VALID,127,VALID,0.0619141,
2001-10-30, 01:46:01,VALID,917.585,VALID,0,VALID,98.4909,VALID,0.0339617,VALID,18.6187,VALID,103,VALID,0.264623,
2001-10-30, 01:47:00,VALID,917.562,VALID,0,VALID,98.4692,VALID,0,VALID,18.6162,VALID,93,VALID,0.250617,
2001-10-30, 01:48:00,VALID,917.537,VALID,0,VALID,98.3472,VALID,-0.0169808,VALID,18.6,VALID,85,VALID,0.462305,
2001-10-30, 01:49:00,VALID,917.525,VALID,0,VALID,98.2632,VALID,0,VALID,18.5642,VALID,79,VALID,0.138477,
2001-10-30, 01:50:00,VALID,917.495,VALID,0,VALID,98.2416,VALID,0,VALID,18.5739,VALID,79,VALID,0,
2001-10-30, 01:51:00,VALID,917.466,VALID,0,VALID,98.1234,VALID,0,VALID,18.5739,VALID,79,VALID,0,
2001-10-30, 01:52:01,VALID,917.44,VALID,0,VALID,98.0077,VALID,0,VALID,18.567,VALID,80,VALID,0.191211,
2001-10-30, 01:53:00,VALID,917.43,VALID,0,VALID,97.967,VALID,0.0169808,VALID,18.5834,VALID,110,VALID,0.354102,
2001-10-30, 01:54:01,VALID,917.416,VALID,0,VALID,97.9364,VALID,0.0339617,VALID,18.5965,VALID,153,VALID,0.260016,
2001-10-30, 01:55:00,VALID,917.406,VALID,0,VALID,97.8996,VALID,0.0169808,VALID,18.6219,VALID,153,VALID,0,
2001-10-30, 01:56:01,VALID,917.403,VALID,0,VALID,97.8411,VALID,0,VALID,18.6288,VALID,153,VALID,0,
2001-10-30, 01:57:00,VALID,917.398,VALID,0,VALID,97.8398,VALID,0,VALID,18.6584,VALID,153,VALID,0,
2001-10-30, 01:58:01,VALID,917.404,VALID,0,VALID,97.8703,VALID,0,VALID,18.6713,VALID,217,VALID,0.102364,
2001-10-30, 01:59:01,VALID,917.384,VALID,0,VALID,97.8703,VALID,0,VALID,18.6805,VALID,327,VALID,0.287829,
2001-10-30, 02:00:00,VALID,917.37,VALID,0,VALID,97.8106,VALID,0.0169808,VALID,18.6775,VALID,331,VALID,0.493359,
2001-10-30, 02:01:01,VALID,917.361,VALID,0,VALID,97.8296,VALID,0,VALID,18.6581,VALID,334,VALID,0.428125,
2001-10-30, 02:02:01,VALID,917.34,VALID,0,VALID,97.9008,VALID,0,VALID,18.6551,VALID,338,VALID,0.173478,
2001-10-30, 02:03:01,VALID,917.338,VALID,0,VALID,97.9695,VALID,0,VALID,18.6452,VALID,338,VALID,0,
2001-10-30, 02:04:01,VALID,917.34,VALID,0,VALID,98.014,VALID,-0.0169808,VALID,18.6129,VALID,338,VALID,0,
2001-10-30, 02:05:00,VALID,917.321,VALID,0,VALID,98.1285,VALID,0,VALID,18.6226,VALID,348,VALID,0.259961,
2001-10-30, 02:06:01,VALID,917.334,VALID,0,VALID,98.2327,VALID,-0.0169808,VALID,18.6226,VALID,17,VALID,0.963542,
2001-10-30, 02:07:01,VALID,917.346,VALID,0,VALID,98.3192,VALID,0,VALID,18.6293,VALID,19,VALID,1.07278,
2001-10-30, 02:08:01,VALID,917.343,VALID,0,VALID,98.3395,VALID,-0.0339617,VALID,18.6196,VALID,13,VALID,0.655859,
2001-10-30, 02:09:01,VALID,917.352,VALID,0,VALID,98.3548,VALID,-0.0509425,VALID,18.5972,VALID,11,VALID,0.457031,
2001-10-30, 02:10:01,VALID,917.36,VALID,0,VALID,98.3929,VALID,-0.0169808,VALID,18.5675,VALID,2,VALID,0.604167,
2001-10-30, 02:11:00,VALID,917.364,VALID,0,VALID,98.4413,VALID,0,VALID,18.555,VALID,330,VALID,0.50699,
2001-10-30, 02:12:00,VALID,917.357,VALID,0,VALID,98.4921,VALID,0,VALID,18.5324,VALID,294,VALID,0.229492,
2001-10-30, 02:13:00,VALID,917.372,VALID,0,VALID,98.5888,VALID,0,VALID,18.5327,VALID,349,VALID,0.395508,
2001-10-30, 02:14:01,VALID,917.367,VALID,0,VALID,98.6536,VALID,0.0169808,VALID,18.5453,VALID,17,VALID,0.530649,
2001-10-30, 02:15:01,VALID,917.371,VALID,0,VALID,98.6943,VALID,0,VALID,18.5617,VALID,27,VALID,0.615748,
2001-10-30, 02:16:01,VALID,917.348,VALID,0,VALID,98.7452,VALID,0,VALID,18.5811,VALID,21,VALID,0.648633,
2001-10-30, 02:17:00,VALID,917.348,VALID,0,VALID,98.7579,VALID,0,VALID,18.5908,VALID,16,VALID,0.166016,
2001-10-30, 02:18:01,VALID,917.346,VALID,0,VALID,98.7821,VALID,0,VALID,18.5839,VALID,17,VALID,0.445112,
2001-10-30, 02:19:01,VALID,917.348,VALID,0,VALID,98.8075,VALID,0,VALID,18.5898,VALID,13,VALID,0.835321,
2001-10-30, 02:20:01,VALID,917.351,VALID,0,VALID,98.7782,VALID,0.0169808,VALID,18.5675,VALID,294,VALID,0.533008,
2001-10-30, 02:21:01,VALID,917.326,VALID,0,VALID,98.7706,VALID,0,VALID,18.5322,VALID,337,VALID,0.634961,
2001-10-30, 02:22:01,VALID,917.328,VALID,0,VALID,98.8139,VALID,0,VALID,18.5285,VALID,6,VALID,0.723758,
2001-10-30, 02:23:01,VALID,917.336,VALID,0,VALID,98.8355,VALID,0,VALID,18.5292,VALID,345,VALID,0.225946,
2001-10-30, 02:24:01,VALID,917.339,VALID,0,VALID,98.8469,VALID,0,VALID,18.5163,VALID,347,VALID,0.000390625,
2001-10-30, 02:25:01,VALID,917.321,VALID,0,VALID,98.8685,VALID,0,VALID,18.5126,VALID,17,VALID,0.414258,
2001-10-30, 02:26:01,VALID,917.321,VALID,0,VALID,98.8914,VALID,-0.0169808,VALID,18.519,VALID,17,VALID,0.495192,
2001-10-30, 02:27:01,VALID,917.321,VALID,0,VALID,98.894,VALID,0.0169808,VALID,18.5031,VALID,17,VALID,0.167558,
2001-10-30, 02:28:01,VALID,917.312,VALID,0,VALID,98.894,VALID,0,VALID,18.5031,VALID,17,VALID,0,
2001-10-30, 02:29:01,VALID,917.303,VALID,0,VALID,98.9092,VALID,0.0169808,VALID,18.4999,VALID,17,VALID,0,
2001-10-30, 02:30:01,VALID,917.298,VALID,0,VALID,98.8978,VALID,0,VALID,18.4771,VALID,17,VALID,0,
2001-10-30, 02:31:01,VALID,917.291,VALID,0,VALID,98.9245,VALID,0,VALID,18.4711,VALID,22,VALID,0.162007,
2001-10-30, 02:32:01,VALID,917.289,VALID,0,VALID,98.9245,VALID,0,VALID,18.4681,VALID,43,VALID,0.189648,
2001-10-30, 02:33:01,VALID,917.286,VALID,0,VALID,98.9346,VALID,-0.0169808,VALID,18.4614,VALID,44,VALID,0,
2001-10-30, 02:34:01,VALID,917.292,VALID,0,VALID,98.927,VALID,-0.0169808,VALID,18.4452,VALID,16,VALID,0.203926,
2001-10-30, 02:35:01,VALID,917.305,VALID,0,VALID,98.9258,VALID,-0.0169808,VALID,18.4355,VALID,331,VALID,0.732525,
2001-10-30, 02:36:01,VALID,917.297,VALID,0,VALID,98.9219,VALID,-0.0169808,VALID,18.4162,VALID,329,VALID,0.973828,
2001-10-30, 02:37:01,VALID,917.285,VALID,0,VALID,98.9334,VALID,0,VALID,18.403,VALID,352,VALID,0.546289,
2001-10-30, 02:38:01,VALID,917.279,VALID,0,VALID,98.9525,VALID,0,VALID,18.4125,VALID,355,VALID,0.518229,
2001-10-30, 02:39:00,VALID,917.273,VALID,0,VALID,98.9728,VALID,0,VALID,18.4157,VALID,342,VALID,0.841488,
2001-10-30, 02:40:00,VALID,917.257,VALID,0,VALID,98.9881,VALID,0.0339617,VALID,18.4323,VALID,16,VALID,0.889648,
2001-10-30, 02:41:00,VALID,917.247,VALID,0,VALID,99.002,VALID,0.0339617,VALID,18.4316,VALID,3,VALID,0.625391,
2001-10-30, 02:42:00,VALID,917.232,VALID,0,VALID,99.0173,VALID,0,VALID,18.4519,VALID,7,VALID,0.870192,
2001-10-30, 02:43:00,VALID,917.206,VALID,0,VALID,99.0097,VALID,0,VALID,18.4316,VALID,13,VALID,0.979646,
2001-10-30, 02:44:00,VALID,917.208,VALID,0,VALID,99.016,VALID,-0.0169808,VALID,18.4316,VALID,18,VALID,1.00312,
2001-10-30, 02:45:00,VALID,917.198,VALID,0,VALID,99.0211,VALID,0,VALID,18.4353,VALID,9,VALID,0.887109,
2001-10-30, 02:46:00,VALID,917.195,VALID,0,VALID,99.0237,VALID,0,VALID,18.4325,VALID,10,VALID,0.774639,
2001-10-30, 02:47:00,VALID,917.193,VALID,0,VALID,99.0377,VALID,0,VALID,18.4457,VALID,18,VALID,0.894326,
2001-10-30, 02:48:00,VALID,917.179,VALID,0,VALID,99.0478,VALID,0,VALID,18.4388,VALID,11,VALID,0.476758,
2001-10-30, 02:49:00,VALID,917.184,VALID,0,VALID,99.0555,VALID,0,VALID,18.4418,VALID,296,VALID,0.710352,
2001-10-30, 02:50:00,VALID,917.2,VALID,0,VALID,99.0809,VALID,0,VALID,18.4551,VALID,261,VALID,0.339944,
2001-10-30, 02:51:00,VALID,917.208,VALID,0,VALID,99.0872,VALID,0.0169808,VALID,18.4581,VALID,255,VALID,0.122533,
2001-10-30, 02:52:00,VALID,917.213,VALID,0,VALID,99.0936,VALID,-0.0169808,VALID,18.4708,VALID,318,VALID,0.208008,
2001-10-30, 02:53:00,VALID,917.22,VALID,0,VALID,99.1063,VALID,0,VALID,18.4641,VALID,7,VALID,0.285352,
2001-10-30, 02:54:00,VALID,917.223,VALID,0,VALID,99.1292,VALID,0,VALID,18.4837,VALID,7,VALID,0.292067,
2001-10-30, 02:55:00,VALID,917.226,VALID,0,VALID,99.1127,VALID,0.0169808,VALID,18.4904,VALID,7,VALID,0.327714,
2001-10-30, 02:56:00,VALID,917.229,VALID,0,VALID,99.119,VALID,-0.0169808,VALID,18.4771,VALID,7,VALID,0.0078125,
2001-10-30, 02:57:00,VALID,917.238,VALID,0,VALID,99.1127,VALID,0,VALID,18.4741,VALID,291,VALID,0.346484,
2001-10-30, 02:58:00,VALID,917.239,VALID,0,VALID,99.1101,VALID,0,VALID,18.4609,VALID,237,VALID,0.645433,
2001-10-30, 02:59:00,VALID,917.236,VALID,0,VALID,99.1063,VALID,-0.0169808,VALID,18.4381,VALID,248,VALID,0.42023,
2001-10-30, 03:00:00,VALID,917.24,VALID,0,VALID,99.1178,VALID,0,VALID,18.445,VALID,248,VALID,0.27168,
2001-10-30, 03:01:00,VALID,917.217,VALID,0,VALID,99.1228,VALID,0,VALID,18.4348,VALID,249,VALID,0.343164,
2001-10-30, 03:02:00,VALID,917.206,VALID,0,VALID,99.133,VALID,0,VALID,18.4385,VALID,249,VALID,0.166066,
2001-10-30, 03:03:00,VALID,917.178,VALID,0,VALID,99.1381,VALID,0,VALID,18.4385,VALID,256,VALID,0.274671,
2001-10-30, 03:04:00,VALID,917.174,VALID,0,VALID,99.1368,VALID,0.0169808,VALID,18.4318,VALID,294,VALID,0.283789,
2001-10-30, 03:05:00,VALID,917.163,VALID,0,VALID,99.147,VALID,0,VALID,18.4316,VALID,296,VALID,0.185937,
2001-10-30, 03:06:00,VALID,917.147,VALID,0,VALID,99.1572,VALID,0.0169808,VALID,18.4254,VALID,305,VALID,0.00600962,
2001-10-30, 03:07:00,VALID,917.143,VALID,0,VALID,99.1661,VALID,0,VALID,18.4482,VALID,317,VALID,0,
2001-10-30, 03:08:00,VALID,917.137,VALID,0,VALID,99.1737,VALID,0,VALID,18.4678,VALID,333,VALID,0,
2001-10-30, 03:09:00,VALID,917.118,VALID,0,VALID,99.1775,VALID,0,VALID,18.4671,VALID,353,VALID,0,
2001-10-30, 03:10:00,VALID,917.114,VALID,0,VALID,99.1928,VALID,0,VALID,18.4773,VALID,9,VALID,0,
2001-10-30, 03:11:00,VALID,917.1,VALID,0,VALID,99.1852,VALID,0,VALID,18.4934,VALID,9,VALID,0,
2001-10-30, 03:12:00,VALID,917.084,VALID,0,VALID,99.1902,VALID,0,VALID,18.484,VALID,8,VALID,0,
2001-10-30, 03:13:00,VALID,917.069,VALID,0,VALID,99.1801,VALID,0,VALID,18.4671,VALID,354,VALID,0,
2001-10-30, 03:14:00,VALID,917.054,VALID,0,VALID,99.1826,VALID,0,VALID,18.4743,VALID,352,VALID,0,
2001-10-30, 03:15:00,VALID,917.036,VALID,0,VALID,99.1737,VALID,0,VALID,18.4678,VALID,352,VALID,0,
2001-10-30, 03:16:00,VALID,917.025,VALID,0,VALID,99.1737,VALID,-0.0169808,VALID,18.4487,VALID,352,VALID,0,
2001-10-30, 03:17:00,VALID,916.997,VALID,0,VALID,99.1737,VALID,0,VALID,18.4418,VALID,352,VALID,0,
2001-10-30, 03:18:00,VALID,916.998,VALID,0,VALID,99.1864,VALID,-0.0169808,VALID,18.4452,VALID,352,VALID,0,
2001-10-30, 03:19:00,VALID,916.976,VALID,0,VALID,99.1928,VALID,0,VALID,18.4351,VALID,352,VALID,0,
2001-10-30, 03:20:00,VALID,916.967,VALID,0,VALID,99.1941,VALID,-0.0169808,VALID,18.4388,VALID,352,VALID,0,
2001-10-30, 03:21:00,VALID,916.967,VALID,0,VALID,99.2119,VALID,0,VALID,18.4478,VALID,352,VALID,0,
2001-10-30, 03:22:00,VALID,916.961,VALID,0,VALID,99.2258,VALID,-0.0169808,VALID,18.4547,VALID,352,VALID,0,
2001-10-30, 03:23:00,VALID,916.959,VALID,0,VALID,99.2398,VALID,0,VALID,18.4609,VALID,352,VALID,0,
2001-10-30, 03:24:00,VALID,916.939,VALID,0,VALID,99.2347,VALID,-0.0169808,VALID,18.4874,VALID,352,VALID,0,
2001-10-30, 03:25:00,VALID,916.937,VALID,0,VALID,99.2246,VALID,0,VALID,18.4872,VALID,10,VALID,0,
2001-10-30, 03:26:00,VALID,916.927,VALID,0,VALID,99.2347,VALID,0,VALID,18.4708,VALID,17,VALID,0,
2001-10-30, 03:27:00,VALID,916.932,VALID,0,VALID,99.2322,VALID,0,VALID,18.4872,VALID,24,VALID,0,
2001-10-30, 03:28:00,VALID,916.942,VALID,0,VALID,99.2449,VALID,-0.0169808,VALID,18.49,VALID,24,VALID,0,
2001-10-30, 03:29:00,VALID,916.951,VALID,0,VALID,99.2411,VALID,-0.0339617,VALID,18.5066,VALID,24,VALID,0,
2001-10-30, 03:30:00,VALID,916.961,VALID,0,VALID,99.2538,VALID,0,VALID,18.5193,VALID,24,VALID,0,
2001-10-30, 03:31:00,VALID,916.959,VALID,0,VALID,99.2589,VALID,0,VALID,18.532,VALID,24,VALID,0,
2001-10-30, 03:32:00,VALID,916.959,VALID,0,VALID,99.2551,VALID,0,VALID,18.5386,VALID,24,VALID,0.246484,
2001-10-30, 03:33:00,VALID,916.958,VALID,0,VALID,99.2462,VALID,-0.0169808,VALID,18.5449,VALID,25,VALID,0.502734,
2001-10-30, 03:34:00,VALID,916.956,VALID,0,VALID,99.2538,VALID,0,VALID,18.5518,VALID,13,VALID,0.395433,
2001-10-30, 03:35:00,VALID,916.951,VALID,0,VALID,99.264,VALID,-0.0169808,VALID,18.5647,VALID,14,VALID,0.439145,
2001-10-30, 03:36:00,VALID,916.962,VALID,0,VALID,99.2564,VALID,0,VALID,18.5647,VALID,11,VALID,0.629687,
2001-10-30, 03:37:00,VALID,916.966,VALID,0,VALID,99.2475,VALID,0.0169808,VALID,18.5426,VALID,9,VALID,0.730664,
2001-10-30, 03:38:00,VALID,916.96,VALID,0,VALID,99.2335,VALID,-0.0339617,VALID,18.5193,VALID,356,VALID,0.616186,
2001-10-30, 03:39:00,VALID,916.97,VALID,0,VALID,99.2322,VALID,-0.0169808,VALID,18.4937,VALID,14,VALID,0.619449,
2001-10-30, 03:40:00,VALID,916.956,VALID,0,VALID,99.2347,VALID,0,VALID,18.4904,VALID,28,VALID,0.480469,
2001-10-30, 03:41:00,VALID,916.953,VALID,0,VALID,99.236,VALID,0,VALID,18.4934,VALID,28,VALID,0.142773,